Flag for U.S.A. Weather past 2 weeks in Glendale, Arizona, U.S.A.

Now
94 °F

Thundershowers. Clear.


Feels Like: 93 °F
Forecast: 89 / 109 °F
Wind: 6 mph from North

Location: Phoenix-Deer Valley Municipal Airport

Current Time: Jun 29, 2015 at 10:27:35 PM

Latest Report: Jun 29, 2015 at 9:53 PM


Visibility: 10 mi

Pressure: 29.76 "Hg

Humidity: 30%

Dew point: 58 °F

Location of GlendaleLocation

Historic Weather in Glendale — Graph

°F

Glendale temperature yesterday

Maximum temperature yesterday: 107 °F (at 3:53 PM)
Minimum temperature yesterday: 84 °F (at 5:53 AM)
Average temperature yesterday: 95 °F

Past Weeks' High & Low Weather Summary

 TemperatureHumidityPressure
High112 °F (Jun 18, 2:53 PM)46% (Jun 27, 3:53 AM)29.90 "Hg (Jun 27, 3:53 AM)
Low74 °F (Jun 20, 4:53 AM)2% (Jun 19, 4:53 PM)29.59 "Hg (Jun 14, 8:53 PM)
Average95 °F18%29.74 "Hg
* Reported Jun 14 8:53 PM — Jun 29 8:53 PM, Glendale, Weather by CustomWeather, © 2015

Note: Actual official high and low records may vary slightly from our data, if they occured in-between our weather recording intervals... More about our weather records

Advertising

Glendale weather history for previous 24 hours

 ConditionsComfort  
Time TempWeatherWind HumidityBarometerVisibility
8:53 PM
Mon, Jun 29
93 °FClear.8 mph31%29.74 "Hg10 mi
7:53 PM102 °FClear.12 mph20%29.69 "Hg10 mi
6:53 PM104 °FSunny.14 mph20%29.69 "Hg10 mi
5:53 PM105 °FSunny.13 mph20%29.65 "Hg10 mi
4:53 PM106 °FSunny.8 mph19%29.68 "Hg10 mi
3:53 PM106 °FSunny.8 mph19%29.69 "Hg10 mi
2:53 PM105 °FSunny.12 mph20%29.72 "Hg10 mi
1:53 PM103 °FSunny.7 mph21%29.75 "Hg10 mi
12:53 PM102 °FSunny.7 mph23%29.79 "Hg10 mi
11:53 AM99 °FSunny.6 mph27%29.81 "Hg10 mi
10:53 AM98 °FSunny.6 mph27%29.83 "Hg10 mi
9:53 AM95 °FSunny.No wind31%29.83 "Hg10 mi
8:53 AM92 °FSunny.No wind36%29.85 "Hg10 mi
7:53 AM89 °FSunny.No wind39%29.84 "Hg10 mi
6:53 AM87 °FSunny.5 mph42%29.83 "Hg10 mi
5:53 AM86 °FSunny.6 mph43%29.81 "Hg10 mi
4:53 AM87 °FClear.3 mph39%29.78 "Hg10 mi
3:53 AM88 °FClear.3 mph38%29.75 "Hg10 mi
2:53 AM89 °FClear.No wind39%29.77 "Hg10 mi
1:53 AM91 °FClear.5 mph31%29.78 "Hg10 mi
12:53 AM91 °FClear.No wind36%29.81 "Hg10 mi
11:53 PM
Sun, Jun 28
92 °FClear.5 mph33%29.80 "Hg10 mi
10:53 PM93 °FClear.5 mph33%29.79 "Hg10 mi
Weather by CustomWeather, © 2015

See weather overviewHow to use our weather pages